Location: São Paulo
(23.5507°S, 46.6334°W)
Time: 08:07:50
(UTC-03:00)

Vanguard 3 - Pass Details

Date: 16 February 2026
Orbit: 507 x 3205 km, 33.4° (Epoch: 7 March)

Event Time Altitude Azimuth Distance (km) Brightness Sun altitude
Exits shadow 01:47:07 21° 80° (E) 3,064 10.1 -48.3°
Drops below altitude 10° 01:52:03 10° 99° (E) 4,408 11.2 -47.7°
Sets 01:57:16 0° 109° (ESE) 5,916 12.1 -47.0°
